Location: Korczew
(51.3586°N, 19.4491°E)
Time: 07:45:34
(UTC+00:00)

Helios 1B rocket - Pass Details

Date: 19 May 2025
Orbit: 497 x 502 km, 98.2° (Epoch: 17 June)

Event Time Altitude Azimuth Distance (km) Brightness Sun altitude
Rises 19:15:57 0° 183° (S) 2,575 5.4 -6.0°
Reaches altitude 10° 19:18:08 10° 192° (SSW) 1,698 4.5 -6.3°
Maximum altitude 19:21:32 37° 261° (W) 791 3.5 -6.7°
Drops below altitude 10° 19:24:59 10° 330° (NNW) 1,715 6.3 -7.1°
Sets 19:27:12 0° 339° (NNW) 2,605 7.2 -7.3°
